[[{"header":{"parameterUnit":"m.s-1","parameterCategory":1,"la1":30.2991,"la2":30.254,"lo1":-89.0895,"lo2":-89.0444,"dy":0.0017,"dx":0.0017,"nx":28,"ny":28,"refTime":"2025-04-15T03:00:00:Z","depth":0,"parameterNumber":2,"parameterNumberName":"U-component_of_WINDS"},"data":[0,0,0,0,0,0,0,0,0,0,0,0,0,0,0,0,0,0,0,0,0,0,0,0,0,0,0,0,0,0,0,0,0,0,0,0,0,0,0,0,0,0,0,0,0,0,0,0,0,0,0,0,0,0,0,0,0,0,0.9524,0.9525,0,0.965,0.9651,0.9653,0.9716,0.9716,0.9716,0.9716,0.9844,0.9847,0.9851,0,0,0,0,0,0,0,0,0,0,0,0,0,0.9334,0.9337,0.9523,0.9525,0.9527,0.965,0.9651,0.9653,0.9716,0.9716,0.9716,0.9716,0.9843,0.9847,0.9851,0,0,0,0,0,0,0,0,0,0,0,0,0,0.9434,0.9339,0.9523,0.9573,0.9579,0.9649,0.9651,0.9654,0.9716,0.9716,0.9716,0.9716,0.9842,0.9846,0.9852,0.9882,0,0,0.9867,0.9869,0,0,0,0,0,0,0,0,0.9428,0.9441,0.9564,0.957,0.9576,0.9667,0.9632,0.973,0.9716,0.9664,0.9716,0.9716,0.9785,0.9795,0.9818,0.9888,0.9893,0.9867,0.9871,0.9873,0.9874,0,0,0,0,0,0,0,0.9421,0.9436,0.9573,0.9566,0.9573,0.9588,0.9602,0.9651,0.9723,0.9668,0.9673,0.9687,0.9788,0.9813,0.9822,0.9895,0.9867,0.9872,0.9875,0.9877,0.9995,0.9996,0,0,0,0,0,0,0.9407,0.943,0.9569,0.9577,0.9501,0.9591,0.9607,0.9638,0.9722,0.9735,0.9687,0.969,0.9805,0.9816,0.9827,0.9868,0.9873,0.9877,0.988,0.9995,0.9995,0.9996,0,0,0,0,0,0,0.9402,0.9419,0.9564,0.9505,0.9525,0.9595,0.9628,0.964,0.9665,0.9737,0.975,0.97,0.9805,0.9819,0.9868,0.9873,0.988,0.9884,0.9995,0.9995,0.9996,0.995,0,0,0,0,0,0,0.9397,0.9417,0.943,0.9505,0.9528,0.9604,0.9629,0.9643,0.9674,0.9679,0.9752,0.9764,0.9806,0.986,0.9873,0.988,0.9888,0.9995,0.9995,0.9995,0.9951,0.9948,0.9946,0,0,0,0,0,0.939,0.9411,0.943,0.9446,0.9545,0.9604,0.9617,0.9666,0.9674,0.9688,0.9733,0.9761,0.987,0.9864,0.9879,0.9888,0.9995,0.9995,0.9995,0.9952,0.9949,0.9946,0,0,0,0,0,0,0.9334,0.9422,0.9444,0.949,0.9539,0.9615,0.9633,0.9661,0.9708,0.971,0.9768,0.9784,0.9827,0.9863,0.9854,0.9922,0.9935,0.9938,0.9897,0.9894,0.9892,0.9882,0.9892,0,0,0,0,0,0.9328,0.9369,0.9443,0.9477,0.9501,0.9562,0.959,0.9623,0.9676,0.9697,0.9746,0.9796,0.9841,0.987,0.9915,0.9956,0.9973,0.997,0.9967,0.9964,0.9967,0.999,0.999,0.9996,0.9996,0.9996,0,0,0.9314,0.9367,0.939,0.9467,0.9509,0.955,0.9579,0.9621,0.9651,0.9703,0.9752,0.9789,0.9848,0.9893,0.9915,0.9924,0.9968,0.9965,0.9962,0.9966,0.999,0.999,0.9989,0.9997,0.9997,0.9997,0,0,0.9311,0.9355,0.9388,0.9429,0.9492,0.9533,0.9541,0.9612,0.9639,0.9689,0.9728,0.9765,0.9842,0.9882,0.9913,0.9923,0.9951,0.9936,0.9923,0.9945,0.9945,0.9944,0.9948,0.9948,0.9938,0.9938,0.9938,0,0.9286,0.9349,0.9401,0.9441,0.9474,0.9522,0.9556,0.9593,0.9667,0.9688,0.9697,0.9794,0.9838,0.9892,0.9894,0.9918,0.9928,0.9928,0.9941,0.9941,0.9941,0.9945,0.9947,0.9936,0.9936,0.9936,0.9937,0,0.9315,0.9359,0.9378,0.9449,0.9483,0.952,0.9576,0.9605,0.9635,0.9674,0.9724,0.9777,0.9834,0.985,0.9879,0.9908,0.9912,0.9929,0.9944,0.9938,0.9942,0.9944,0.9933,0.9934,0.9934,0.9935,0,0,0.9281,0.938,0.9386,0.9419,0.9492,0.9526,0.9563,0.962,0.9643,0.9692,0.9725,0.9789,0.9806,0.984,0.9875,0.9894,0.9898,0.991,0.9912,0.9906,0.9933,0.9919,0.992,0.9917,0.9917,0.9918,0.9928,0,0.9288,0.9359,0.9406,0.9458,0.9499,0.9545,0.9578,0.9625,0.9663,0.9702,0.9743,0.9787,0.9806,0.9827,0.9849,0.9893,0.9905,0.9893,0.9948,0.9949,0.9932,0.9922,0.9908,0.9915,0.993,0.993,0.9931,0,0.9305,0.9353,0.9409,0.9477,0.9496,0.9525,0.958,0.9616,0.9671,0.9697,0.9735,0.977,0.9811,0.9822,0.9879,0.987,0.9895,0.992,0.9921,0.9929,0.9939,0.9929,0.9918,0.9919,0.9934,0.9934,0.9933,0,0.9274,0.9353,0.9397,0.9423,0.9504,0.9523,0.9557,0.9611,0.9642,0.9689,0.971,0.9761,0.9789,0.9828,0.9876,0.9879,0.9928,0.9943,0.995,0.9949,0.9958,0.9957,0.9951,0.9974,0.9974,0.9974,0.9974,0,0.9277,0.9309,0.9384,0.9411,0.9448,0.9502,0.9537,0.9575,0.9623,0.9657,0.97,0.9731,0.9792,0.9831,0.9868,0.9909,0.9922,0.9943,0.9953,0.994,0.9937,0.9957,0.9958,0.9974,0.9974,0.9974,0.9974,0,0.9249,0.93,0.9351,0.9423,0.9441,0.9466,0.9527,0.9554,0.9593,0.9636,0.9649,0.9711,0.9759,0.981,0.9874,0.9899,0.9939,0.9952,0.992,0.9926,0.993,0.9929,0.9937,0.994,0.996,0.996,0.996,0,0.9247,0.9273,0.9347,0.9374,0.9407,0.9449,0.948,0.9533,0.9564,0.9627,0.9647,0.9697,0.9741,0.9814,0.9864,0.9914,0.9929,0.9928,0.9937,0.9922,0.9929,0.9927,0.9929,0.9926,0.9925,0.9925,0.9924,0,0.9238,0.9262,0.9306,0.9359,0.9395,0.9439,0.9484,0.9503,0.9565,0.9597,0.9646,0.968,0.9745,0.9795,0.985,0.9885,0.9915,0.9921,0.9926,0.9912,0.9893,0.9903,0.9913,0.9921,0.9921,0.9922,0.9922,0.9922,0.9223,0.9248,0.9305,0.9352,0.9391,0.9433,0.9462,0.9505,0.9547,0.9605,0.9633,0.9682,0.9735,0.9813,0.9846,0.9884,0.9894,0.99,0.9902,0.9902,0.9899,0.9886,0.9895,0.9895,0.9895,0.9895,0.9895,0,0.9217,0.9255,0.9298,0.936,0.9397,0.9422,0.9473,0.9502,0.9544,0.9592,0.9633,0.9689,0.9737,0.9791,0.9842,0.9862,0.9877,0.9874,0.9873,0.988,0.9888,0.9879,0.9861,0.9861,0.9861,0.9861,0.9861,0.9861,0.9217,0.9261,0.9292,0.9355,0.9393,0.9441,0.9468,0.9506,0.9544,0.9605,0.9645,0.968,0.9729,0.9784,0.9829,0.9843,0.986,0.9853,0.9871,0.9877,0.988,0.9882,0.9874,0.9856,0.9856,0.9861,0.9861,0.9861]},{"header":{"parameterUnit":"m.s-1","parameterCategory":1,"la1":30.2991,"la2":30.254,"lo1":-89.0895,"lo2":-89.0444,"dy":0.0017,"dx":0.0017,"nx":28,"ny":28,"refTime":"2025-04-15T03:00:00:Z","depth":0,"parameterNumber":3,"parameterNumberName":"V-component_of_WINDS"},"data":[0,0,0,0,0,0,0,0,0,0,0,0,0,0,0,0,0,0,0,0,0,0,0,0,0,0,0,0,0,0,0,0,0,0,0,0,0,0,0,0,0,0,0,0,0,0,0,0,0,0,0,0,0,0,0,0,0,0,3.1623,3.1623,0,3.16,3.16,3.16,3.1588,3.1588,3.1587,3.1587,3.1561,3.156,3.156,0,0,0,0,0,0,0,0,0,0,0,0,0,3.1652,3.1651,3.1623,3.1623,3.1622,3.16,3.16,3.16,3.1588,3.1588,3.1587,3.1587,3.1561,3.1561,3.156,0,0,0,0,0,0,0,0,0,0,0,0,0,3.1635,3.1651,3.1623,3.1614,3.1613,3.1601,3.16,3.16,3.1588,3.1588,3.1587,3.1587,3.1562,3.1561,3.156,3.1554,0,0,3.1556,3.1556,0,0,0,0,0,0,0,0,3.1636,3.1634,3.1615,3.1614,3.1613,3.1597,3.1601,3.1584,3.1588,3.1597,3.1587,3.1587,3.1573,3.1571,3.1567,3.1553,3.1552,3.1556,3.1556,3.1555,3.1555,0,0,0,0,0,0,0,3.1637,3.1635,3.1614,3.1615,3.1614,3.161,3.1607,3.1598,3.1585,3.1596,3.1595,3.1593,3.1572,3.1568,3.1566,3.1551,3.1556,3.1555,3.1555,3.1554,3.1532,3.1532,0,0,0,0,0,0,3.164,3.1636,3.1615,3.1613,3.1625,3.1609,3.1606,3.1602,3.1585,3.1583,3.1593,3.1592,3.1569,3.1567,3.1565,3.1557,3.1555,3.1554,3.1554,3.1532,3.1532,3.1532,0,0,0,0,0,0,3.1641,3.1639,3.1615,3.1624,3.1621,3.1609,3.1604,3.1602,3.1597,3.1583,3.158,3.1591,3.1569,3.1566,3.1557,3.1556,3.1554,3.1553,3.1532,3.1532,3.1532,3.1542,0,0,0,0,0,0,3.1642,3.1639,3.1637,3.1625,3.1621,3.1609,3.1604,3.1601,3.1596,3.1595,3.158,3.1578,3.1569,3.1559,3.1556,3.1555,3.1552,3.1532,3.1532,3.1532,3.1542,3.1542,3.1543,0,0,0,0,0,3.1643,3.1641,3.1637,3.1635,3.1619,3.1609,3.1607,3.1598,3.1596,3.1594,3.1585,3.1578,3.1557,3.1558,3.1555,3.1553,3.1532,3.1532,3.1532,3.1541,3.1542,3.1543,0,0,0,0,0,0,3.1652,3.1639,3.1635,3.1628,3.162,3.1607,3.1604,3.1599,3.159,3.1589,3.1577,3.1574,3.1566,3.1558,3.156,3.1547,3.1543,3.1543,3.1552,3.1553,3.1553,3.1555,3.1551,0,0,0,0,0,3.1654,3.1648,3.1636,3.1631,3.1627,3.1617,3.1612,3.1606,3.1596,3.1592,3.1582,3.1572,3.1563,3.1558,3.1549,3.1541,3.1537,3.1538,3.1539,3.1539,3.1539,3.1534,3.1534,3.1532,3.1532,3.1532,0,0,3.1657,3.1648,3.1645,3.1633,3.1626,3.1619,3.1614,3.1607,3.1601,3.1591,3.1582,3.1574,3.1562,3.1554,3.1549,3.1547,3.1539,3.1539,3.154,3.1539,3.1534,3.1534,3.1534,3.1532,3.1532,3.1532,0,0,3.1658,3.1652,3.1647,3.164,3.163,3.1623,3.1622,3.1609,3.1604,3.1595,3.1587,3.158,3.1565,3.1557,3.1551,3.1549,3.1543,3.1547,3.155,3.1545,3.1545,3.1545,3.1545,3.1545,3.1546,3.1546,3.1546,0,3.1662,3.1653,3.1645,3.1639,3.1633,3.1625,3.162,3.1613,3.16,3.1596,3.1594,3.1575,3.1566,3.1556,3.1555,3.1551,3.1549,3.1548,3.1546,3.1546,3.1546,3.1545,3.1545,3.1547,3.1547,3.1547,3.1547,0,3.1659,3.1652,3.165,3.1639,3.1633,3.1627,3.1617,3.1612,3.1607,3.16,3.159,3.158,3.1568,3.1565,3.1559,3.1554,3.1553,3.1549,3.1545,3.1547,3.1546,3.1546,3.1548,3.1547,3.1547,3.1547,0,0,3.1665,3.165,3.1649,3.1644,3.1632,3.1627,3.162,3.161,3.1606,3.1597,3.1591,3.1579,3.1575,3.1568,3.1561,3.1557,3.1557,3.1553,3.1553,3.1554,3.1549,3.1553,3.1552,3.1553,3.1553,3.1552,3.155,0,3.1665,3.1654,3.1647,3.1639,3.1632,3.1624,3.1619,3.161,3.1603,3.1596,3.1588,3.158,3.1576,3.1571,3.1567,3.1558,3.1555,3.1558,3.1546,3.1546,3.1549,3.1552,3.1555,3.1554,3.155,3.155,3.155,0,3.1663,3.1656,3.1647,3.1636,3.1633,3.1629,3.1619,3.1613,3.1603,3.1598,3.1591,3.1584,3.1575,3.1573,3.1561,3.1563,3.1558,3.1552,3.1552,3.155,3.1548,3.155,3.1553,3.1553,3.1549,3.1549,3.1549,0,3.1668,3.1656,3.165,3.1645,3.1632,3.1629,3.1624,3.1614,3.1608,3.1599,3.1596,3.1586,3.158,3.1572,3.1562,3.1561,3.1551,3.1548,3.1546,3.1547,3.1544,3.1545,3.1546,3.1541,3.1541,3.1541,3.1541,0,3.1668,3.1663,3.1652,3.1648,3.1642,3.1633,3.1627,3.1621,3.1612,3.1606,3.1598,3.1592,3.1579,3.1572,3.1564,3.1555,3.1553,3.1548,3.1546,3.1549,3.1549,3.1545,3.1544,3.1541,3.1541,3.1541,3.1541,0,3.1673,3.1665,3.1658,3.1646,3.1643,3.164,3.1629,3.1625,3.1618,3.161,3.1607,3.1596,3.1586,3.1576,3.1563,3.1557,3.1549,3.1546,3.1553,3.1552,3.1551,3.1551,3.1549,3.1548,3.1545,3.1545,3.1545,0,3.1674,3.167,3.1659,3.1655,3.1649,3.1643,3.1637,3.1628,3.1623,3.1612,3.1608,3.1598,3.159,3.1575,3.1565,3.1555,3.1551,3.1552,3.155,3.1553,3.1551,3.1551,3.1551,3.1552,3.1552,3.1552,3.1552,0,3.1675,3.1672,3.1665,3.1657,3.1652,3.1645,3.1637,3.1634,3.1623,3.1617,3.1608,3.1602,3.1589,3.1579,3.1568,3.1561,3.1554,3.1553,3.1552,3.1555,3.1559,3.1556,3.1554,3.1553,3.1553,3.1553,3.1553,3.1553,3.1678,3.1674,3.1666,3.1659,3.1652,3.1646,3.1641,3.1634,3.1626,3.1616,3.1611,3.1602,3.1591,3.1576,3.1569,3.1561,3.1559,3.1557,3.1557,3.1557,3.1557,3.156,3.1559,3.1559,3.1559,3.1559,3.1559,0,3.1679,3.1673,3.1667,3.1657,3.1652,3.1648,3.1639,3.1634,3.1627,3.1618,3.1611,3.16,3.1591,3.158,3.157,3.1565,3.1562,3.1563,3.1563,3.1561,3.156,3.1562,3.1566,3.1566,3.1566,3.1566,3.1566,3.1566,3.1679,3.1673,3.1668,3.1658,3.1652,3.1644,3.164,3.1633,3.1627,3.1616,3.1608,3.1602,3.1592,3.1581,3.1572,3.1569,3.1565,3.1567,3.1563,3.1562,3.1561,3.1561,3.1562,3.1566,3.1566,3.1565,3.1565,3.1565]}]]